GFSFLT1_prec_precacc_159.txt.gz
Total_Precipitation_Accumulation
0.00 0.03 0.04 0.06 0.08 0.32 0.58 0.72 1.21 1.58 0.91 0.50 0.62 0.93 0.81 0.75 0.63 0.75 0.92 0.78 0.97 0.93 0.82 0.61 0.70 0.83 0.69 0.83 0.89 0.81 0.67 0.53
0.02 0.05 0.06 0.08 0.18 0.42 0.64 1.00 0.97 0.47 0.28 0.29 0.43 0.62 0.75 0.70 0.59 0.62 1.00 1.15 1.19 1.54 1.49 1.32 0.85 0.53 0.65 0.75 1.13 1.16 1.08 0.93
0.01 0.04 0.10 0.29 0.44 0.44 0.33 0.15 0.13 0.05 0.06 0.14 0.30 0.42 0.62 0.57 0.47 0.40 0.69 0.88 1.26 1.36 1.48 1.72 1.87 1.23 0.76 0.73 1.08 1.51 1.63 1.54
0.04 0.08 0.13 0.11 0.05 0.02 0.06 0.08 0.14 0.07 0.05 0.20 0.38 0.56 0.76 0.68 0.64 0.34 0.29 0.50 0.84 1.22 1.44 1.38 1.39 1.29 1.16 1.12 1.32 1.75 1.65 1.61
0.03 0.01 0.00 0.01 0.03 0.03 0.06 0.13 0.16 0.10 0.20 0.36 0.35 0.38 0.49 0.36 0.29 0.29 0.26 0.45 0.58 0.88 1.20 1.09 1.33 1.57 1.08 0.90 0.68 1.09 1.58 1.74
0.02 0.02 0.01 0.00 0.05 0.08 0.08 0.15 0.28 0.21 0.21 0.55 0.69 0.66 0.47 0.40 0.37 0.43 0.42 0.45 0.62 0.69 0.94 1.07 1.10 1.11 1.13 1.00 0.65 0.57 0.85 1.10
0.06 0.06 0.04 0.04 0.09 0.12 0.11 0.14 0.24 0.27 0.24 0.39 0.75 1.17 1.51 1.66 1.35 0.93 0.68 0.79 0.84 0.88 0.94 1.05 1.57 1.77 1.55 1.33 1.54 1.32 1.01 1.05
0.12 0.10 0.08 0.09 0.13 0.21 0.22 0.15 0.15 0.15 0.21 0.21 0.29 0.53 0.86 1.35 2.00 2.78 2.70 2.22 1.95 2.04 2.01 1.72 1.61 1.87 2.55 2.03 1.96 1.97 2.03 1.65
0.13 0.14 0.14 0.14 0.20 0.35 0.34 0.33 0.32 0.20 0.22 0.31 0.45 0.53 0.65 0.97 1.10 1.44 2.22 2.96 2.66 3.02 3.48 3.70 2.99 2.39 2.63 2.75 2.31 2.25 2.71 2.70
0.20 0.19 0.26 0.35 0.30 0.39 0.56 0.54 0.63 0.51 0.41 0.39 0.52 0.72 0.72 0.65 0.80 1.42 1.52 1.46 1.65 2.10 2.32 2.52 3.15 3.23 2.80 2.75 2.59 2.18 2.24 2.55
0.34 0.27 0.33 0.34 0.45 0.41 0.56 0.77 1.09 0.82 0.72 0.64 0.69 0.80 0.79 0.92 1.13 1.50 1.92 2.20 2.05 1.60 1.76 1.83 1.66 1.61 1.77 2.16 2.37 2.19 2.15 2.16
0.81 0.50 0.46 0.60 0.78 0.42 0.58 1.04 1.80 1.49 1.10 1.10 1.26 1.05 1.42 1.58 1.41 1.67 1.60 1.70 2.02 1.90 1.60 1.60 1.61 1.42 1.49 1.59 1.58 1.68 1.95 2.08
1.22 0.96 0.78 0.78 0.43 0.51 0.58 0.84 1.19 2.42 2.37 2.50 2.20 2.39 2.83 2.21 2.35 2.73 2.17 1.93 1.67 1.32 1.18 1.12 1.19 1.31 1.46 1.47 1.46 1.52 1.40 1.40
0.89 0.81 0.85 1.01 0.61 0.71 0.88 1.48 1.72 1.66 2.06 2.50 2.40 2.71 2.55 2.50 2.11 1.79 1.51 1.44 1.44 1.41 1.16 1.07 1.06 1.19 1.31 1.64 1.52 1.34 1.44 1.70
0.49 0.60 0.72 1.08 1.16 0.96 1.05 1.36 1.57 1.37 1.51 1.43 2.05 2.03 1.42 1.41 1.82 1.43 1.32 1.23 1.45 1.78 1.89 1.94 1.72 1.39 1.40 1.36 1.31 1.33 1.23 1.56
0.41 0.38 0.43 0.67 0.87 0.90 0.94 0.89 0.97 1.11 1.28 1.10 0.81 0.87 0.81 0.68 0.68 0.76 0.73 0.61 0.77 1.33 1.40 1.56 1.43 1.17 1.16 0.84 0.64 1.01 1.13 1.05
0.60 0.50 0.39 0.39 0.40 0.48 0.55 0.55 0.60 0.61 0.64 0.67 0.72 0.60 0.65 0.66 0.51 0.53 0.37 0.32 0.41 0.61 0.73 0.86 1.01 0.80 0.87 0.52 0.45 0.55 0.62 0.56
0.76 0.81 0.73 0.73 0.62 0.59 0.56 0.58 0.54 0.56 0.56 0.54 0.48 0.59 0.62 0.68 0.63 0.60 0.65 0.71 0.66 0.57 0.60 0.63 0.82 0.97 1.09 0.95 0.79 0.59 0.63 0.73
0.91 0.91 0.88 0.88 0.74 0.69 0.77 0.80 0.79 0.68 0.63 0.60 0.53 0.52 0.64 0.79 0.75 0.76 0.95 0.95 0.81 0.73 0.70 0.62 0.48 0.53 0.69 0.71 0.92 0.95 1.07 0.99

GFSFLT1_prec_precacc_162.txt.gz
Total_Precipitation_Accumulation
0.00 0.03 0.04 0.06 0.08 0.32 0.58 0.72 1.21 1.58 0.91 0.50 0.62 0.93 0.81 0.75 0.63 0.75 0.92 0.78 0.97 0.93 0.82 0.61 0.70 0.83 0.69 0.83 0.89 0.81 0.67 0.53
0.02 0.05 0.06 0.08 0.18 0.42 0.64 1.00 0.97 0.47 0.28 0.29 0.43 0.62 0.75 0.70 0.59 0.62 1.00 1.15 1.19 1.54 1.49 1.32 0.85 0.53 0.65 0.75 1.13 1.16 1.08 0.93
0.01 0.04 0.10 0.29 0.44 0.44 0.33 0.15 0.13 0.05 0.06 0.14 0.30 0.42 0.62 0.57 0.47 0.40 0.69 0.88 1.26 1.36 1.48 1.72 1.87 1.23 0.76 0.73 1.08 1.52 1.63 1.55
0.04 0.08 0.13 0.11 0.05 0.02 0.06 0.08 0.14 0.07 0.05 0.20 0.38 0.56 0.76 0.68 0.64 0.34 0.29 0.50 0.84 1.22 1.44 1.38 1.39 1.29 1.16 1.12 1.32 1.75 1.65 1.61
0.03 0.01 0.00 0.01 0.03 0.03 0.06 0.13 0.16 0.10 0.20 0.36 0.35 0.38 0.49 0.36 0.29 0.29 0.26 0.45 0.58 0.88 1.20 1.09 1.33 1.57 1.09 0.90 0.69 1.09 1.59 1.74
0.02 0.02 0.01 0.00 0.05 0.08 0.08 0.15 0.28 0.21 0.21 0.55 0.69 0.66 0.47 0.40 0.37 0.43 0.42 0.45 0.62 0.69 0.94 1.07 1.11 1.11 1.13 1.00 0.66 0.58 0.85 1.11
0.06 0.06 0.04 0.04 0.09 0.12 0.11 0.14 0.24 0.27 0.24 0.39 0.75 1.17 1.51 1.66 1.35 0.93 0.68 0.79 0.84 0.88 0.94 1.05 1.57 1.77 1.56 1.34 1.55 1.33 1.02 1.06
0.12 0.10 0.08 0.09 0.13 0.21 0.22 0.15 0.15 0.15 0.21 0.21 0.29 0.53 0.86 1.35 2.00 2.78 2.70 2.22 1.95 2.04 2.01 1.72 1.62 1.87 2.55 2.03 1.97 1.98 2.04 1.66
0.13 0.14 0.14 0.14 0.20 0.35 0.34 0.33 0.32 0.20 0.22 0.31 0.45 0.53 0.65 0.97 1.10 1.44 2.22 2.96 2.66 3.02 3.48 3.70 2.99 2.39 2.63 2.75 2.31 2.25 2.72 2.72
0.20 0.19 0.26 0.35 0.30 0.39 0.56 0.54 0.63 0.51 0.41 0.39 0.52 0.72 0.72 0.65 0.80 1.42 1.52 1.46 1.65 2.10 2.32 2.52 3.15 3.23 2.80 2.76 2.59 2.18 2.25 2.56
0.34 0.27 0.33 0.34 0.45 0.41 0.56 0.77 1.09 0.82 0.72 0.64 0.69 0.80 0.79 0.92 1.13 1.50 1.92 2.20 2.05 1.60 1.76 1.83 1.66 1.61 1.77 2.16 2.37 2.19 2.15 2.17
0.81 0.50 0.46 0.60 0.78 0.42 0.58 1.04 1.80 1.49 1.10 1.10 1.26 1.05 1.42 1.58 1.41 1.67 1.60 1.70 2.02 1.90 1.60 1.60 1.61 1.42 1.49 1.59 1.58 1.68 1.95 2.08
1.22 0.96 0.78 0.78 0.43 0.51 0.58 0.84 1.19 2.42 2.37 2.50 2.20 2.39 2.83 2.21 2.35 2.73 2.17 1.93 1.67 1.32 1.18 1.12 1.19 1.31 1.46 1.47 1.46 1.52 1.41 1.41
0.89 0.81 0.85 1.01 0.61 0.71 0.88 1.48 1.72 1.66 2.06 2.50 2.40 2.71 2.55 2.50 2.11 1.79 1.51 1.44 1.44 1.41 1.16 1.07 1.06 1.19 1.31 1.64 1.52 1.34 1.44 1.70
0.49 0.60 0.72 1.08 1.16 0.96 1.05 1.36 1.57 1.37 1.51 1.43 2.05 2.03 1.42 1.41 1.82 1.43 1.32 1.23 1.45 1.78 1.89 1.94 1.72 1.39 1.40 1.36 1.31 1.33 1.23 1.56
0.41 0.38 0.43 0.67 0.87 0.90 0.94 0.89 0.97 1.11 1.28 1.10 0.81 0.87 0.81 0.68 0.68 0.76 0.73 0.61 0.77 1.33 1.40 1.56 1.43 1.17 1.16 0.84 0.64 1.01 1.13 1.05
0.60 0.50 0.39 0.39 0.40 0.48 0.55 0.55 0.60 0.61 0.64 0.67 0.72 0.60 0.65 0.66 0.51 0.53 0.37 0.32 0.41 0.61 0.73 0.86 1.01 0.80 0.87 0.52 0.45 0.55 0.62 0.56
0.76 0.81 0.73 0.73 0.62 0.59 0.56 0.58 0.54 0.56 0.56 0.54 0.48 0.59 0.62 0.68 0.63 0.60 0.65 0.71 0.66 0.57 0.60 0.63 0.82 0.97 1.09 0.95 0.79 0.59 0.63 0.73
0.91 0.91 0.88 0.88 0.74 0.69 0.77 0.80 0.79 0.68 0.63 0.60 0.53 0.52 0.64 0.79 0.75 0.76 0.95 0.95 0.81 0.73 0.70 0.62 0.48 0.53 0.69 0.71 0.92 0.95 1.07 0.99

GFSFLT1_prec_precacc_165.txt.gz
Total_Precipitation_Accumulation
0.00 0.03 0.04 0.06 0.08 0.32 0.58 0.72 1.21 1.58 0.91 0.50 0.62 0.93 0.81 0.75 0.63 0.75 0.92 0.78 0.97 0.93 0.82 0.61 0.70 0.83 0.69 0.83 0.89 0.81 0.67 0.53
0.02 0.05 0.06 0.08 0.18 0.42 0.64 1.00 0.97 0.47 0.28 0.29 0.43 0.62 0.75 0.70 0.59 0.62 1.00 1.15 1.19 1.54 1.49 1.32 0.85 0.53 0.65 0.75 1.13 1.16 1.08 0.93
0.01 0.04 0.10 0.29 0.44 0.44 0.33 0.15 0.13 0.05 0.06 0.14 0.30 0.42 0.62 0.57 0.47 0.40 0.69 0.88 1.26 1.36 1.48 1.72 1.87 1.23 0.76 0.73 1.08 1.52 1.63 1.55
0.04 0.08 0.13 0.11 0.05 0.02 0.06 0.08 0.14 0.07 0.05 0.20 0.38 0.56 0.76 0.68 0.64 0.34 0.29 0.50 0.84 1.22 1.44 1.38 1.39 1.29 1.16 1.12 1.32 1.76 1.65 1.61
0.03 0.01 0.00 0.01 0.03 0.03 0.06 0.13 0.16 0.10 0.20 0.36 0.35 0.38 0.49 0.36 0.29 0.29 0.26 0.45 0.58 0.88 1.20 1.09 1.33 1.57 1.09 0.90 0.69 1.09 1.59 1.74
0.02 0.02 0.01 0.00 0.05 0.08 0.08 0.15 0.28 0.21 0.21 0.55 0.69 0.66 0.47 0.40 0.37 0.43 0.42 0.45 0.62 0.69 0.94 1.07 1.11 1.11 1.13 1.00 0.66 0.58 0.86 1.11
0.06 0.06 0.04 0.04 0.09 0.12 0.11 0.14 0.24 0.27 0.24 0.39 0.75 1.17 1.51 1.66 1.35 0.93 0.68 0.79 0.84 0.88 0.94 1.05 1.57 1.77 1.56 1.34 1.55 1.33 1.02 1.07
0.12 0.10 0.08 0.09 0.13 0.21 0.22 0.15 0.15 0.15 0.21 0.21 0.29 0.53 0.86 1.35 2.00 2.78 2.70 2.22 1.95 2.04 2.01 1.72 1.62 1.87 2.55 2.03 1.97 1.99 2.05 1.67
0.13 0.14 0.14 0.14 0.20 0.35 0.34 0.33 0.32 0.20 0.22 0.31 0.45 0.53 0.65 0.97 1.10 1.44 2.22 2.96 2.66 3.02 3.48 3.70 2.99 2.39 2.63 2.75 2.31 2.25 2.72 2.72
0.20 0.19 0.26 0.35 0.30 0.39 0.56 0.54 0.63 0.51 0.41 0.39 0.52 0.72 0.72 0.65 0.80 1.42 1.52 1.46 1.65 2.10 2.32 2.52 3.15 3.23 2.80 2.76 2.59 2.18 2.25 2.56
0.34 0.27 0.33 0.34 0.45 0.41 0.56 0.77 1.09 0.82 0.72 0.64 0.69 0.80 0.79 0.92 1.13 1.50 1.92 2.20 2.05 1.60 1.76 1.83 1.66 1.61 1.77 2.16 2.37 2.19 2.15 2.17
0.81 0.50 0.46 0.60 0.78 0.42 0.58 1.04 1.80 1.49 1.10 1.10 1.26 1.05 1.42 1.58 1.41 1.67 1.60 1.70 2.02 1.90 1.60 1.60 1.61 1.42 1.49 1.59 1.58 1.68 1.95 2.08
1.22 0.96 0.78 0.78 0.43 0.51 0.58 0.84 1.19 2.42 2.37 2.50 2.20 2.39 2.83 2.21 2.35 2.73 2.17 1.93 1.67 1.32 1.18 1.12 1.19 1.31 1.46 1.47 1.46 1.52 1.41 1.41
0.89 0.81 0.85 1.01 0.61 0.71 0.88 1.48 1.72 1.66 2.06 2.50 2.40 2.71 2.55 2.50 2.11 1.79 1.51 1.44 1.44 1.41 1.16 1.07 1.06 1.19 1.31 1.64 1.52 1.34 1.44 1.70
0.49 0.60 0.72 1.08 1.16 0.96 1.05 1.36 1.57 1.37 1.51 1.43 2.05 2.03 1.42 1.41 1.82 1.43 1.32 1.23 1.45 1.78 1.89 1.94 1.72 1.39 1.40 1.36 1.31 1.33 1.23 1.56
0.41 0.38 0.43 0.67 0.87 0.90 0.94 0.89 0.97 1.11 1.28 1.10 0.81 0.87 0.81 0.68 0.68 0.76 0.73 0.61 0.77 1.33 1.40 1.56 1.43 1.17 1.16 0.84 0.64 1.01 1.13 1.05
0.60 0.50 0.39 0.39 0.40 0.48 0.55 0.55 0.60 0.61 0.64 0.67 0.72 0.60 0.65 0.66 0.51 0.53 0.37 0.32 0.41 0.61 0.73 0.86 1.01 0.80 0.87 0.52 0.45 0.55 0.62 0.56
0.76 0.81 0.73 0.73 0.62 0.59 0.56 0.58 0.54 0.56 0.56 0.54 0.48 0.59 0.62 0.68 0.63 0.60 0.65 0.71 0.66 0.57 0.60 0.63 0.82 0.97 1.09 0.95 0.79 0.59 0.63 0.73
0.91 0.91 0.88 0.88 0.74 0.69 0.77 0.80 0.79 0.68 0.63 0.60 0.53 0.52 0.64 0.79 0.75 0.76 0.95 0.95 0.81 0.73 0.70 0.62 0.48 0.53 0.69 0.71 0.92 0.95 1.07 0.99

GFSFLT1_prec_precacc_168.txt.gz
Total_Precipitation_Accumulation
0.00 0.03 0.04 0.06 0.08 0.32 0.58 0.72 1.21 1.58 0.91 0.50 0.62 0.93 0.81 0.75 0.63 0.75 0.92 0.78 0.97 0.93 0.82 0.61 0.70 0.83 0.69 0.83 0.89 0.81 0.67 0.53
0.02 0.05 0.06 0.08 0.18 0.42 0.64 1.00 0.97 0.47 0.28 0.29 0.43 0.62 0.75 0.70 0.59 0.62 1.00 1.15 1.19 1.54 1.49 1.32 0.85 0.53 0.65 0.75 1.13 1.16 1.08 0.93
0.01 0.04 0.10 0.29 0.44 0.44 0.33 0.15 0.13 0.05 0.06 0.14 0.30 0.42 0.62 0.57 0.47 0.40 0.69 0.88 1.26 1.36 1.48 1.72 1.87 1.23 0.76 0.73 1.08 1.52 1.63 1.55
0.04 0.08 0.13 0.11 0.05 0.02 0.06 0.08 0.14 0.07 0.05 0.20 0.38 0.56 0.76 0.68 0.64 0.34 0.29 0.50 0.84 1.22 1.44 1.38 1.39 1.29 1.16 1.12 1.32 1.76 1.65 1.61
0.03 0.01 0.00 0.01 0.03 0.03 0.06 0.13 0.16 0.10 0.20 0.36 0.35 0.38 0.49 0.36 0.29 0.29 0.26 0.45 0.58 0.88 1.20 1.09 1.33 1.57 1.09 0.90 0.69 1.09 1.60 1.75
0.02 0.02 0.01 0.00 0.05 0.08 0.08 0.15 0.28 0.21 0.21 0.55 0.69 0.66 0.47 0.40 0.37 0.43 0.42 0.45 0.62 0.69 0.94 1.07 1.11 1.11 1.13 1.00 0.66 0.58 0.86 1.11
0.06 0.06 0.04 0.04 0.09 0.12 0.11 0.14 0.24 0.27 0.24 0.39 0.75 1.17 1.51 1.66 1.35 0.93 0.68 0.79 0.84 0.88 0.94 1.05 1.57 1.77 1.56 1.34 1.55 1.33 1.02 1.07
0.12 0.10 0.08 0.09 0.13 0.21 0.22 0.15 0.15 0.15 0.21 0.21 0.29 0.53 0.86 1.35 2.00 2.78 2.70 2.22 1.95 2.04 2.01 1.72 1.62 1.87 2.55 2.03 1.97 1.99 2.05 1.67
0.13 0.14 0.14 0.14 0.20 0.35 0.34 0.33 0.32 0.20 0.22 0.31 0.45 0.53 0.65 0.97 1.10 1.44 2.22 2.96 2.66 3.02 3.48 3.70 2.99 2.39 2.63 2.75 2.31 2.25 2.72 2.72
0.20 0.19 0.26 0.35 0.30 0.39 0.56 0.54 0.63 0.51 0.41 0.39 0.52 0.72 0.72 0.65 0.80 1.42 1.52 1.46 1.65 2.10 2.32 2.52 3.15 3.23 2.80 2.76 2.59 2.18 2.25 2.56
0.34 0.27 0.33 0.34 0.45 0.41 0.56 0.77 1.09 0.82 0.72 0.64 0.69 0.80 0.79 0.92 1.13 1.50 1.92 2.20 2.05 1.60 1.76 1.83 1.66 1.61 1.77 2.16 2.37 2.19 2.15 2.17
0.81 0.50 0.46 0.60 0.78 0.42 0.58 1.04 1.80 1.49 1.10 1.10 1.26 1.05 1.42 1.58 1.41 1.67 1.60 1.70 2.02 1.90 1.60 1.60 1.61 1.42 1.49 1.59 1.58 1.68 1.95 2.08
1.22 0.96 0.78 0.78 0.43 0.51 0.58 0.84 1.19 2.42 2.37 2.50 2.20 2.39 2.83 2.21 2.35 2.73 2.17 1.93 1.67 1.32 1.18 1.12 1.19 1.31 1.46 1.47 1.46 1.52 1.41 1.41
0.89 0.81 0.85 1.01 0.61 0.71 0.88 1.48 1.72 1.66 2.06 2.50 2.40 2.71 2.55 2.50 2.11 1.79 1.51 1.44 1.44 1.41 1.16 1.07 1.06 1.19 1.31 1.64 1.52 1.34 1.44 1.70
0.49 0.60 0.72 1.08 1.16 0.96 1.05 1.36 1.57 1.37 1.51 1.43 2.05 2.03 1.42 1.41 1.82 1.43 1.32 1.23 1.45 1.78 1.89 1.94 1.72 1.39 1.40 1.36 1.31 1.33 1.23 1.56
0.41 0.38 0.43 0.67 0.87 0.90 0.94 0.89 0.97 1.11 1.28 1.10 0.81 0.87 0.81 0.68 0.68 0.76 0.73 0.61 0.77 1.33 1.40 1.56 1.43 1.17 1.16 0.84 0.64 1.01 1.13 1.05
0.60 0.50 0.39 0.39 0.40 0.48 0.55 0.55 0.60 0.61 0.64 0.67 0.72 0.60 0.65 0.66 0.51 0.53 0.37 0.32 0.41 0.61 0.73 0.86 1.01 0.80 0.87 0.52 0.45 0.55 0.62 0.56
0.76 0.81 0.73 0.73 0.62 0.59 0.56 0.58 0.54 0.56 0.56 0.54 0.48 0.59 0.62 0.68 0.63 0.60 0.65 0.71 0.66 0.57 0.60 0.63 0.82 0.97 1.09 0.95 0.79 0.59 0.63 0.73
0.91 0.91 0.88 0.88 0.74 0.69 0.77 0.80 0.79 0.68 0.63 0.60 0.53 0.52 0.64 0.79 0.75 0.76 0.95 0.95 0.81 0.73 0.70 0.62 0.48 0.53 0.69 0.71 0.92 0.95 1.07 0.99

GFSFLT1_prec_precacc_171.txt.gz
Total_Precipitation_Accumulation
0.00 0.03 0.04 0.06 0.08 0.32 0.58 0.72 1.21 1.58 0.91 0.50 0.62 0.93 0.81 0.75 0.63 0.75 0.92 0.78 0.97 0.93 0.82 0.61 0.70 0.83 0.69 0.83 0.89 0.81 0.67 0.53
0.02 0.05 0.06 0.08 0.18 0.42 0.64 1.00 0.97 0.47 0.28 0.29 0.43 0.62 0.75 0.70 0.59 0.62 1.00 1.15 1.19 1.54 1.49 1.32 0.85 0.53 0.65 0.75 1.13 1.16 1.08 0.93
0.01 0.04 0.10 0.29 0.44 0.44 0.33 0.15 0.13 0.05 0.06 0.14 0.30 0.42 0.62 0.57 0.47 0.40 0.69 0.88 1.26 1.36 1.48 1.72 1.87 1.23 0.76 0.73 1.08 1.52 1.63 1.55
0.04 0.08 0.13 0.11 0.05 0.02 0.06 0.08 0.14 0.07 0.05 0.20 0.38 0.56 0.76 0.68 0.64 0.34 0.29 0.50 0.84 1.22 1.44 1.38 1.39 1.29 1.16 1.12 1.32 1.76 1.65 1.61
0.03 0.01 0.00 0.01 0.03 0.03 0.06 0.13 0.16 0.10 0.20 0.36 0.35 0.38 0.49 0.36 0.29 0.29 0.26 0.45 0.58 0.88 1.20 1.09 1.33 1.57 1.09 0.90 0.69 1.09 1.60 1.75
0.02 0.02 0.01 0.00 0.05 0.08 0.08 0.15 0.28 0.21 0.21 0.55 0.69 0.66 0.47 0.40 0.37 0.43 0.42 0.45 0.62 0.69 0.94 1.07 1.11 1.11 1.13 1.00 0.66 0.58 0.86 1.12
0.06 0.06 0.04 0.04 0.09 0.12 0.11 0.14 0.24 0.27 0.24 0.39 0.75 1.17 1.51 1.66 1.35 0.93 0.68 0.79 0.84 0.88 0.94 1.05 1.57 1.77 1.56 1.34 1.55 1.33 1.02 1.07
0.12 0.10 0.08 0.09 0.13 0.21 0.22 0.15 0.15 0.15 0.21 0.21 0.29 0.53 0.86 1.35 2.00 2.78 2.70 2.22 1.95 2.04 2.01 1.72 1.62 1.87 2.55 2.03 1.97 1.99 2.05 1.67
0.13 0.14 0.14 0.14 0.20 0.35 0.34 0.33 0.32 0.20 0.22 0.31 0.45 0.53 0.65 0.97 1.10 1.44 2.22 2.96 2.66 3.02 3.48 3.70 2.99 2.39 2.63 2.75 2.31 2.25 2.72 2.72
0.20 0.19 0.26 0.35 0.30 0.39 0.56 0.54 0.63 0.51 0.41 0.39 0.52 0.72 0.72 0.65 0.80 1.42 1.52 1.46 1.65 2.10 2.32 2.52 3.15 3.23 2.80 2.76 2.59 2.18 2.25 2.56
0.34 0.27 0.33 0.34 0.45 0.41 0.56 0.77 1.09 0.82 0.72 0.64 0.69 0.80 0.79 0.92 1.13 1.50 1.92 2.20 2.05 1.60 1.76 1.83 1.66 1.61 1.77 2.16 2.37 2.19 2.15 2.17
0.81 0.50 0.46 0.60 0.78 0.42 0.58 1.04 1.80 1.49 1.10 1.10 1.26 1.05 1.42 1.58 1.41 1.67 1.60 1.70 2.02 1.90 1.60 1.60 1.61 1.42 1.49 1.59 1.58 1.68 1.95 2.08
1.22 0.96 0.78 0.78 0.43 0.51 0.58 0.84 1.19 2.42 2.37 2.50 2.20 2.39 2.83 2.21 2.35 2.73 2.17 1.93 1.67 1.32 1.18 1.12 1.19 1.31 1.46 1.47 1.46 1.52 1.41 1.41
0.89 0.81 0.85 1.01 0.61 0.71 0.88 1.48 1.72 1.66 2.06 2.50 2.40 2.71 2.55 2.50 2.11 1.79 1.51 1.44 1.44 1.41 1.16 1.07 1.06 1.19 1.31 1.64 1.52 1.34 1.44 1.70
0.49 0.60 0.72 1.08 1.16 0.96 1.05 1.36 1.57 1.37 1.51 1.43 2.05 2.03 1.42 1.41 1.82 1.43 1.32 1.23 1.45 1.78 1.89 1.94 1.72 1.39 1.40 1.36 1.31 1.33 1.23 1.56
0.41 0.38 0.43 0.67 0.87 0.90 0.94 0.89 0.97 1.11 1.28 1.10 0.81 0.87 0.81 0.68 0.68 0.76 0.73 0.61 0.77 1.33 1.40 1.56 1.43 1.17 1.16 0.84 0.64 1.01 1.13 1.05
0.60 0.50 0.39 0.39 0.40 0.48 0.55 0.55 0.60 0.61 0.64 0.67 0.72 0.60 0.65 0.66 0.51 0.53 0.37 0.32 0.41 0.61 0.73 0.86 1.01 0.80 0.87 0.52 0.45 0.55 0.62 0.56
0.76 0.81 0.73 0.73 0.62 0.59 0.56 0.58 0.54 0.56 0.56 0.54 0.48 0.59 0.62 0.68 0.63 0.60 0.65 0.71 0.66 0.57 0.60 0.63 0.82 0.97 1.09 0.95 0.79 0.59 0.63 0.73
0.91 0.91 0.88 0.88 0.74 0.69 0.77 0.80 0.79 0.68 0.63 0.60 0.53 0.52 0.64 0.79 0.75 0.76 0.95 0.95 0.81 0.73 0.70 0.62 0.48 0.53 0.69 0.71 0.92 0.95 1.07 0.99

GFSFLT1_prec_precacc_174.txt.gz
Total_Precipitation_Accumulation
0.00 0.03 0.04 0.06 0.08 0.32 0.58 0.72 1.21 1.58 0.91 0.50 0.62 0.93 0.81 0.75 0.63 0.75 0.92 0.78 0.97 0.93 0.82 0.61 0.70 0.83 0.69 0.83 0.89 0.81 0.67 0.53
0.02 0.05 0.06 0.08 0.18 0.42 0.64 1.00 0.97 0.47 0.28 0.29 0.43 0.62 0.75 0.70 0.59 0.62 1.00 1.15 1.19 1.54 1.49 1.32 0.85 0.53 0.65 0.75 1.13 1.16 1.08 0.93
0.01 0.04 0.10 0.29 0.44 0.44 0.33 0.15 0.13 0.05 0.06 0.14 0.30 0.42 0.62 0.57 0.47 0.40 0.69 0.88 1.26 1.36 1.48 1.72 1.87 1.23 0.76 0.73 1.08 1.52 1.63 1.55
0.04 0.08 0.13 0.11 0.05 0.02 0.06 0.08 0.14 0.07 0.05 0.20 0.38 0.56 0.76 0.68 0.64 0.34 0.29 0.50 0.84 1.22 1.44 1.38 1.39 1.29 1.16 1.12 1.32 1.76 1.65 1.61
0.03 0.01 0.00 0.01 0.03 0.03 0.06 0.13 0.16 0.10 0.20 0.36 0.35 0.38 0.49 0.36 0.29 0.29 0.26 0.45 0.58 0.88 1.20 1.09 1.33 1.57 1.09 0.90 0.69 1.09 1.60 1.75
0.02 0.02 0.01 0.00 0.05 0.08 0.08 0.15 0.28 0.21 0.21 0.55 0.69 0.66 0.47 0.40 0.37 0.43 0.42 0.45 0.62 0.69 0.94 1.07 1.11 1.11 1.13 1.00 0.66 0.58 0.86 1.12
0.06 0.06 0.04 0.04 0.09 0.12 0.11 0.14 0.24 0.27 0.24 0.39 0.75 1.17 1.51 1.66 1.35 0.93 0.68 0.79 0.84 0.88 0.94 1.05 1.57 1.77 1.56 1.34 1.55 1.33 1.02 1.07
0.12 0.10 0.08 0.09 0.13 0.21 0.22 0.15 0.15 0.15 0.21 0.21 0.29 0.53 0.86 1.35 2.00 2.78 2.70 2.22 1.95 2.04 2.01 1.72 1.62 1.87 2.55 2.03 1.97 1.99 2.05 1.67
0.13 0.14 0.14 0.14 0.20 0.35 0.34 0.33 0.32 0.20 0.22 0.31 0.45 0.53 0.65 0.97 1.10 1.44 2.22 2.96 2.66 3.02 3.48 3.70 2.99 2.39 2.63 2.75 2.31 2.25 2.72 2.73
0.20 0.19 0.26 0.35 0.30 0.39 0.56 0.54 0.63 0.51 0.41 0.39 0.52 0.72 0.72 0.65 0.80 1.42 1.52 1.46 1.65 2.10 2.32 2.52 3.15 3.23 2.80 2.76 2.59 2.18 2.25 2.56
0.34 0.27 0.33 0.34 0.45 0.41 0.56 0.77 1.09 0.82 0.72 0.64 0.69 0.80 0.79 0.92 1.13 1.50 1.92 2.20 2.05 1.60 1.76 1.83 1.66 1.61 1.77 2.16 2.37 2.19 2.15 2.17
0.81 0.50 0.46 0.60 0.78 0.42 0.58 1.04 1.80 1.49 1.10 1.10 1.26 1.05 1.42 1.58 1.41 1.67 1.60 1.70 2.02 1.90 1.60 1.60 1.61 1.42 1.49 1.59 1.58 1.68 1.95 2.08
1.22 0.96 0.78 0.78 0.43 0.51 0.58 0.84 1.19 2.42 2.37 2.50 2.20 2.39 2.83 2.21 2.35 2.73 2.17 1.93 1.67 1.32 1.18 1.12 1.19 1.31 1.46 1.47 1.46 1.52 1.41 1.41
0.89 0.81 0.85 1.01 0.61 0.71 0.88 1.48 1.72 1.66 2.06 2.50 2.40 2.71 2.55 2.50 2.11 1.79 1.51 1.44 1.44 1.41 1.16 1.07 1.06 1.19 1.31 1.64 1.52 1.34 1.44 1.70
0.49 0.60 0.72 1.08 1.16 0.96 1.05 1.36 1.57 1.37 1.51 1.43 2.05 2.03 1.42 1.41 1.82 1.43 1.32 1.23 1.45 1.78 1.89 1.94 1.72 1.39 1.40 1.36 1.31 1.33 1.23 1.56
0.41 0.38 0.43 0.67 0.87 0.90 0.94 0.89 0.97 1.11 1.28 1.10 0.81 0.87 0.81 0.68 0.68 0.76 0.73 0.61 0.77 1.33 1.40 1.56 1.43 1.17 1.16 0.84 0.64 1.01 1.13 1.05
0.60 0.50 0.39 0.39 0.40 0.48 0.55 0.55 0.60 0.61 0.64 0.67 0.72 0.60 0.65 0.66 0.51 0.53 0.37 0.32 0.41 0.61 0.73 0.86 1.01 0.80 0.87 0.52 0.45 0.55 0.62 0.56
0.76 0.81 0.73 0.73 0.62 0.59 0.56 0.58 0.54 0.56 0.57 0.54 0.48 0.59 0.62 0.68 0.63 0.60 0.65 0.71 0.66 0.57 0.60 0.63 0.82 0.97 1.09 0.95 0.79 0.59 0.63 0.73
0.91 0.92 0.89 0.88 0.74 0.69 0.77 0.80 0.79 0.68 0.63 0.60 0.53 0.52 0.64 0.79 0.75 0.76 0.95 0.95 0.81 0.73 0.70 0.62 0.48 0.53 0.69 0.71 0.92 0.95 1.07 0.99

GFSFLT1_prec_precacc_177.txt.gz
Total_Precipitation_Accumulation
0.00 0.03 0.04 0.06 0.08 0.32 0.58 0.72 1.21 1.58 0.91 0.50 0.62 0.93 0.81 0.75 0.63 0.75 0.92 0.78 0.97 0.93 0.82 0.61 0.70 0.83 0.69 0.83 0.89 0.81 0.67 0.53
0.02 0.05 0.06 0.08 0.18 0.42 0.64 1.00 0.97 0.47 0.28 0.29 0.43 0.62 0.75 0.70 0.59 0.62 1.00 1.15 1.19 1.54 1.49 1.32 0.85 0.53 0.65 0.75 1.13 1.16 1.08 0.93
0.01 0.04 0.10 0.29 0.44 0.44 0.33 0.15 0.13 0.05 0.06 0.14 0.30 0.42 0.62 0.57 0.47 0.40 0.69 0.88 1.26 1.36 1.48 1.72 1.87 1.23 0.76 0.73 1.08 1.52 1.63 1.55
0.04 0.08 0.13 0.11 0.05 0.02 0.06 0.08 0.14 0.07 0.05 0.20 0.38 0.56 0.76 0.68 0.64 0.34 0.29 0.50 0.84 1.22 1.44 1.38 1.39 1.29 1.16 1.12 1.32 1.76 1.65 1.61
0.03 0.01 0.00 0.01 0.03 0.03 0.06 0.13 0.16 0.10 0.20 0.36 0.35 0.38 0.49 0.36 0.29 0.29 0.26 0.45 0.58 0.88 1.20 1.09 1.33 1.57 1.09 0.90 0.69 1.09 1.60 1.75
0.02 0.02 0.01 0.00 0.05 0.08 0.08 0.15 0.28 0.21 0.21 0.55 0.69 0.66 0.47 0.40 0.37 0.43 0.42 0.45 0.62 0.69 0.94 1.07 1.11 1.11 1.13 1.00 0.66 0.58 0.86 1.12
0.06 0.06 0.04 0.04 0.09 0.12 0.11 0.14 0.24 0.27 0.24 0.39 0.75 1.17 1.51 1.66 1.35 0.93 0.68 0.79 0.84 0.88 0.94 1.05 1.57 1.77 1.56 1.34 1.55 1.33 1.02 1.07
0.12 0.10 0.08 0.09 0.13 0.21 0.22 0.15 0.15 0.15 0.21 0.21 0.29 0.53 0.86 1.35 2.00 2.78 2.70 2.22 1.95 2.04 2.01 1.72 1.62 1.87 2.55 2.03 1.97 1.99 2.05 1.67
0.13 0.14 0.14 0.14 0.20 0.35 0.34 0.33 0.32 0.20 0.22 0.31 0.45 0.53 0.65 0.97 1.10 1.44 2.22 2.96 2.66 3.02 3.48 3.70 2.99 2.39 2.63 2.75 2.31 2.25 2.72 2.73
0.20 0.19 0.26 0.35 0.30 0.39 0.56 0.54 0.63 0.51 0.41 0.39 0.52 0.72 0.72 0.65 0.80 1.42 1.52 1.46 1.65 2.10 2.32 2.52 3.15 3.23 2.80 2.76 2.59 2.18 2.25 2.56
0.34 0.27 0.33 0.34 0.45 0.41 0.56 0.77 1.09 0.82 0.72 0.64 0.69 0.80 0.79 0.92 1.13 1.50 1.92 2.20 2.05 1.60 1.76 1.83 1.66 1.61 1.77 2.16 2.37 2.19 2.15 2.17
0.81 0.50 0.46 0.60 0.78 0.42 0.58 1.04 1.80 1.49 1.10 1.10 1.26 1.05 1.42 1.58 1.41 1.67 1.60 1.70 2.02 1.90 1.60 1.60 1.61 1.42 1.49 1.59 1.58 1.68 1.95 2.08
1.22 0.96 0.78 0.78 0.43 0.51 0.58 0.84 1.19 2.42 2.37 2.50 2.20 2.39 2.83 2.21 2.35 2.73 2.17 1.93 1.67 1.32 1.18 1.12 1.19 1.31 1.46 1.47 1.46 1.52 1.41 1.41
0.89 0.81 0.85 1.01 0.61 0.71 0.88 1.48 1.72 1.66 2.06 2.50 2.40 2.71 2.55 2.50 2.11 1.79 1.51 1.44 1.44 1.41 1.16 1.07 1.06 1.19 1.31 1.64 1.52 1.34 1.44 1.70
0.49 0.60 0.72 1.09 1.16 0.96 1.05 1.36 1.57 1.37 1.51 1.43 2.05 2.03 1.42 1.41 1.82 1.43 1.32 1.23 1.45 1.78 1.89 1.94 1.72 1.39 1.40 1.36 1.31 1.33 1.23 1.56
0.41 0.38 0.43 0.67 0.87 0.90 0.94 0.90 0.97 1.11 1.28 1.10 0.81 0.87 0.81 0.68 0.68 0.76 0.73 0.61 0.77 1.33 1.40 1.56 1.43 1.17 1.16 0.84 0.64 1.01 1.13 1.05
0.60 0.50 0.39 0.39 0.40 0.48 0.55 0.55 0.60 0.61 0.64 0.67 0.72 0.60 0.65 0.66 0.51 0.53 0.37 0.32 0.41 0.61 0.73 0.86 1.01 0.80 0.87 0.52 0.45 0.55 0.62 0.56
0.76 0.81 0.73 0.73 0.62 0.59 0.56 0.58 0.54 0.56 0.57 0.54 0.48 0.59 0.62 0.68 0.63 0.60 0.65 0.71 0.66 0.57 0.60 0.63 0.82 0.97 1.09 0.95 0.79 0.59 0.63 0.73
0.91 0.92 0.89 0.88 0.74 0.69 0.77 0.80 0.79 0.68 0.63 0.61 0.54 0.52 0.64 0.79 0.75 0.76 0.95 0.95 0.81 0.73 0.70 0.62 0.48 0.53 0.69 0.71 0.92 0.95 1.07 0.99

GFSFLT1_prec_precacc_183.txt.gz
Total_Precipitation_Accumulation
0.00 0.03 0.04 0.06 0.08 0.32 0.58 0.72 1.21 1.58 0.91 0.50 0.62 0.93 0.81 0.75 0.63 0.75 0.92 0.78 0.97 0.93 0.82 0.61 0.70 0.83 0.69 0.83 0.89 0.81 0.67 0.53
0.02 0.05 0.06 0.08 0.18 0.42 0.64 1.00 0.97 0.47 0.28 0.29 0.43 0.62 0.75 0.70 0.59 0.62 1.00 1.15 1.19 1.54 1.49 1.32 0.85 0.53 0.65 0.75 1.13 1.16 1.08 0.93
0.01 0.04 0.10 0.29 0.44 0.44 0.33 0.15 0.13 0.05 0.06 0.14 0.30 0.42 0.62 0.57 0.47 0.40 0.69 0.88 1.26 1.36 1.48 1.72 1.87 1.23 0.76 0.73 1.08 1.52 1.63 1.55
0.04 0.08 0.13 0.11 0.05 0.02 0.06 0.08 0.14 0.07 0.05 0.20 0.38 0.56 0.76 0.68 0.64 0.34 0.29 0.50 0.84 1.22 1.44 1.38 1.39 1.29 1.16 1.12 1.32 1.76 1.65 1.61
0.03 0.01 0.00 0.01 0.03 0.03 0.06 0.13 0.16 0.10 0.20 0.36 0.35 0.38 0.49 0.36 0.29 0.29 0.26 0.45 0.58 0.88 1.20 1.09 1.33 1.57 1.09 0.90 0.69 1.09 1.60 1.75
0.02 0.02 0.01 0.00 0.05 0.08 0.08 0.15 0.28 0.21 0.21 0.55 0.69 0.66 0.47 0.40 0.37 0.43 0.42 0.45 0.62 0.69 0.94 1.07 1.11 1.11 1.13 1.00 0.66 0.58 0.86 1.12
0.07 0.07 0.05 0.04 0.09 0.12 0.11 0.14 0.24 0.27 0.24 0.39 0.75 1.17 1.51 1.66 1.35 0.93 0.68 0.79 0.84 0.88 0.94 1.05 1.57 1.77 1.56 1.34 1.55 1.33 1.02 1.07
0.12 0.10 0.08 0.09 0.13 0.21 0.22 0.15 0.15 0.15 0.21 0.21 0.29 0.53 0.86 1.35 2.00 2.78 2.70 2.22 1.95 2.04 2.01 1.72 1.62 1.87 2.55 2.03 1.97 1.99 2.05 1.67
0.13 0.14 0.14 0.14 0.20 0.35 0.34 0.33 0.32 0.20 0.22 0.31 0.45 0.53 0.65 0.97 1.10 1.44 2.22 2.96 2.66 3.02 3.48 3.70 2.99 2.39 2.63 2.75 2.31 2.25 2.72 2.73
0.20 0.19 0.26 0.35 0.30 0.39 0.56 0.54 0.63 0.51 0.41 0.39 0.52 0.72 0.72 0.65 0.80 1.42 1.52 1.46 1.65 2.10 2.32 2.52 3.15 3.23 2.80 2.76 2.59 2.18 2.25 2.56
0.34 0.27 0.33 0.34 0.45 0.41 0.56 0.77 1.09 0.82 0.72 0.64 0.69 0.80 0.79 0.92 1.13 1.50 1.92 2.20 2.05 1.60 1.76 1.83 1.66 1.61 1.77 2.16 2.37 2.19 2.15 2.17
0.81 0.50 0.46 0.60 0.78 0.42 0.58 1.04 1.80 1.49 1.10 1.10 1.26 1.05 1.42 1.58 1.41 1.67 1.60 1.70 2.02 1.90 1.60 1.60 1.61 1.42 1.49 1.59 1.58 1.68 1.95 2.08
1.22 0.96 0.78 0.78 0.43 0.51 0.58 0.84 1.19 2.42 2.37 2.50 2.20 2.39 2.83 2.21 2.35 2.73 2.17 1.93 1.67 1.32 1.18 1.12 1.19 1.31 1.46 1.47 1.46 1.52 1.41 1.41
0.90 0.81 0.85 1.01 0.61 0.71 0.88 1.48 1.72 1.66 2.06 2.50 2.40 2.71 2.55 2.50 2.11 1.79 1.51 1.44 1.44 1.41 1.16 1.07 1.06 1.19 1.31 1.64 1.52 1.34 1.44 1.70
0.49 0.60 0.72 1.09 1.17 0.96 1.05 1.36 1.57 1.37 1.51 1.43 2.05 2.03 1.42 1.41 1.82 1.43 1.32 1.23 1.45 1.78 1.89 1.94 1.72 1.39 1.40 1.36 1.31 1.33 1.23 1.56
0.41 0.38 0.43 0.67 0.87 0.90 0.94 0.90 0.99 1.11 1.28 1.10 0.81 0.87 0.81 0.68 0.68 0.76 0.73 0.61 0.77 1.33 1.40 1.56 1.43 1.17 1.16 0.84 0.64 1.01 1.13 1.05
0.60 0.50 0.39 0.39 0.40 0.48 0.55 0.55 0.61 0.61 0.64 0.68 0.73 0.60 0.65 0.66 0.51 0.53 0.37 0.32 0.41 0.61 0.73 0.86 1.01 0.80 0.87 0.52 0.45 0.55 0.62 0.56
0.76 0.81 0.73 0.73 0.62 0.59 0.56 0.58 0.54 0.56 0.57 0.54 0.48 0.59 0.62 0.68 0.63 0.60 0.65 0.71 0.66 0.57 0.60 0.63 0.82 0.97 1.09 0.95 0.79 0.59 0.63 0.73
0.91 0.92 0.89 0.88 0.74 0.69 0.77 0.80 0.79 0.68 0.63 0.61 0.54 0.52 0.64 0.79 0.75 0.76 0.95 0.95 0.81 0.73 0.70 0.62 0.48 0.53 0.69 0.71 0.92 0.95 1.07 0.99

GFSFLT1_prec_precacc_186.txt.gz
Total_Precipitation_Accumulation
0.00 0.03 0.04 0.06 0.08 0.32 0.58 0.72 1.21 1.58 0.91 0.50 0.62 0.93 0.81 0.75 0.63 0.75 0.92 0.78 0.97 0.93 0.82 0.61 0.70 0.83 0.69 0.83 0.89 0.81 0.67 0.53
0.02 0.05 0.06 0.08 0.18 0.42 0.64 1.00 0.97 0.47 0.28 0.29 0.43 0.62 0.75 0.70 0.59 0.62 1.00 1.15 1.19 1.54 1.49 1.32 0.85 0.53 0.65 0.75 1.13 1.16 1.08 0.93
0.01 0.04 0.10 0.29 0.44 0.45 0.33 0.15 0.13 0.05 0.06 0.14 0.30 0.42 0.62 0.57 0.47 0.40 0.69 0.88 1.26 1.36 1.48 1.72 1.87 1.23 0.76 0.73 1.08 1.52 1.63 1.55
0.04 0.08 0.13 0.11 0.05 0.02 0.06 0.08 0.14 0.07 0.05 0.20 0.38 0.56 0.76 0.68 0.64 0.34 0.29 0.50 0.84 1.22 1.44 1.38 1.39 1.29 1.16 1.12 1.32 1.76 1.65 1.61
0.03 0.01 0.00 0.01 0.03 0.03 0.06 0.13 0.16 0.10 0.20 0.36 0.35 0.38 0.49 0.36 0.29 0.29 0.26 0.45 0.58 0.88 1.20 1.09 1.33 1.57 1.09 0.90 0.69 1.09 1.60 1.75
0.02 0.02 0.02 0.01 0.05 0.08 0.08 0.15 0.28 0.21 0.21 0.55 0.69 0.66 0.47 0.40 0.37 0.43 0.42 0.45 0.62 0.69 0.94 1.07 1.11 1.11 1.13 1.00 0.66 0.58 0.86 1.12
0.07 0.10 0.09 0.06 0.10 0.12 0.11 0.14 0.24 0.27 0.24 0.39 0.75 1.17 1.51 1.66 1.35 0.93 0.68 0.79 0.84 0.88 0.94 1.05 1.57 1.77 1.56 1.34 1.55 1.33 1.02 1.07
0.16 0.17 0.14 0.12 0.14 0.21 0.22 0.15 0.15 0.15 0.21 0.21 0.29 0.53 0.86 1.35 2.00 2.78 2.70 2.22 1.95 2.04 2.01 1.72 1.62 1.87 2.55 2.03 1.97 1.99 2.05 1.67
0.20 0.20 0.16 0.15 0.20 0.35 0.34 0.33 0.32 0.20 0.22 0.31 0.45 0.53 0.65 0.97 1.10 1.44 2.22 2.96 2.66 3.02 3.48 3.70 2.99 2.39 2.63 2.75 2.31 2.25 2.72 2.73
0.21 0.20 0.27 0.35 0.30 0.39 0.56 0.54 0.63 0.51 0.41 0.39 0.52 0.72 0.72 0.65 0.80 1.42 1.52 1.46 1.65 2.10 2.32 2.52 3.15 3.23 2.80 2.76 2.59 2.18 2.25 2.56
0.35 0.27 0.33 0.34 0.45 0.41 0.56 0.77 1.09 0.82 0.72 0.64 0.69 0.80 0.79 0.92 1.13 1.50 1.92 2.20 2.05 1.60 1.76 1.83 1.66 1.61 1.77 2.16 2.37 2.19 2.15 2.17
0.82 0.50 0.46 0.60 0.78 0.42 0.58 1.04 1.80 1.49 1.10 1.10 1.26 1.05 1.42 1.58 1.41 1.67 1.60 1.70 2.02 1.90 1.60 1.60 1.61 1.42 1.49 1.59 1.58 1.68 1.95 2.08
1.25 0.97 0.78 0.78 0.43 0.51 0.58 0.84 1.19 2.42 2.37 2.50 2.20 2.39 2.83 2.21 2.35 2.73 2.17 1.93 1.67 1.32 1.18 1.12 1.19 1.31 1.46 1.47 1.46 1.52 1.41 1.41
0.91 0.81 0.85 1.01 0.61 0.71 0.88 1.48 1.72 1.66 2.06 2.50 2.40 2.71 2.55 2.50 2.11 1.79 1.51 1.44 1.44 1.41 1.16 1.07 1.06 1.19 1.31 1.64 1.52 1.34 1.44 1.70
0.50 0.60 0.72 1.09 1.17 0.96 1.05 1.36 1.57 1.37 1.51 1.43 2.05 2.03 1.42 1.41 1.82 1.43 1.32 1.23 1.45 1.78 1.89 1.94 1.72 1.39 1.40 1.36 1.31 1.33 1.23 1.56
0.41 0.38 0.43 0.67 0.87 0.90 0.94 0.90 0.99 1.11 1.28 1.10 0.81 0.87 0.81 0.68 0.68 0.76 0.73 0.61 0.77 1.33 1.40 1.56 1.43 1.17 1.16 0.84 0.64 1.01 1.13 1.05
0.60 0.50 0.39 0.39 0.40 0.49 0.55 0.55 0.61 0.61 0.64 0.68 0.73 0.61 0.67 0.67 0.51 0.53 0.37 0.32 0.41 0.61 0.73 0.86 1.01 0.80 0.87 0.52 0.45 0.55 0.62 0.56
0.76 0.81 0.73 0.73 0.62 0.59 0.57 0.58 0.54 0.56 0.57 0.54 0.48 0.59 0.62 0.68 0.64 0.60 0.65 0.71 0.66 0.57 0.60 0.63 0.82 0.97 1.09 0.95 0.79 0.59 0.63 0.73
0.91 0.92 0.89 0.89 0.75 0.69 0.78 0.81 0.79 0.68 0.63 0.61 0.54 0.52 0.64 0.79 0.76 0.77 0.95 0.95 0.81 0.73 0.70 0.62 0.48 0.53 0.69 0.71 0.92 0.95 1.07 0.99

GFSFLT1_prec_precacc_189.txt.gz
Total_Precipitation_Accumulation
0.00 0.03 0.04 0.06 0.08 0.32 0.58 0.72 1.21 1.58 0.91 0.50 0.62 0.93 0.81 0.75 0.63 0.75 0.92 0.78 0.97 0.93 0.82 0.61 0.70 0.83 0.69 0.83 0.89 0.81 0.67 0.53
0.02 0.05 0.06 0.08 0.18 0.42 0.65 1.00 0.97 0.47 0.28 0.29 0.43 0.62 0.75 0.70 0.59 0.62 1.00 1.15 1.19 1.54 1.49 1.32 0.85 0.53 0.65 0.75 1.13 1.16 1.08 0.93
0.01 0.04 0.10 0.29 0.44 0.45 0.33 0.15 0.13 0.05 0.06 0.14 0.30 0.42 0.62 0.57 0.47 0.40 0.69 0.88 1.26 1.36 1.48 1.72 1.87 1.23 0.76 0.73 1.08 1.52 1.63 1.55
0.04 0.08 0.13 0.11 0.05 0.03 0.07 0.08 0.14 0.07 0.05 0.20 0.38 0.56 0.76 0.68 0.64 0.34 0.29 0.50 0.84 1.22 1.44 1.38 1.39 1.29 1.16 1.12 1.32 1.76 1.65 1.61
0.03 0.01 0.00 0.01 0.03 0.05 0.07 0.13 0.16 0.10 0.20 0.36 0.35 0.38 0.49 0.36 0.29 0.29 0.26 0.45 0.58 0.88 1.20 1.09 1.33 1.57 1.09 0.90 0.69 1.09 1.60 1.75
0.02 0.02 0.02 0.01 0.07 0.11 0.10 0.15 0.28 0.21 0.21 0.55 0.69 0.66 0.47 0.40 0.37 0.43 0.42 0.45 0.62 0.69 0.94 1.07 1.11 1.11 1.13 1.00 0.66 0.58 0.86 1.12
0.07 0.10 0.10 0.09 0.16 0.16 0.13 0.14 0.24 0.27 0.24 0.39 0.75 1.17 1.51 1.66 1.35 0.93 0.68 0.79 0.84 0.88 0.94 1.05 1.57 1.77 1.56 1.34 1.55 1.33 1.02 1.07
0.16 0.17 0.16 0.17 0.19 0.25 0.24 0.15 0.15 0.15 0.21 0.21 0.29 0.53 0.86 1.35 2.00 2.78 2.70 2.22 1.95 2.04 2.01 1.72 1.62 1.87 2.55 2.03 1.97 1.99 2.05 1.67
0.20 0.21 0.20 0.19 0.25 0.40 0.37 0.34 0.32 0.20 0.22 0.31 0.45 0.53 0.65 0.97 1.10 1.44 2.22 2.96 2.66 3.02 3.48 3.70 2.99 2.39 2.63 2.75 2.31 2.25 2.72 2.73
0.24 0.25 0.32 0.41 0.36 0.43 0.58 0.54 0.63 0.51 0.41 0.39 0.52 0.72 0.72 0.65 0.80 1.42 1.52 1.46 1.65 2.10 2.32 2.52 3.15 3.23 2.80 2.76 2.59 2.18 2.25 2.56
0.42 0.37 0.41 0.40 0.50 0.42 0.58 0.78 1.09 0.82 0.72 0.64 0.69 0.80 0.79 0.92 1.13 1.50 1.92 2.20 2.05 1.60 1.76 1.83 1.66 1.61 1.77 2.16 2.37 2.19 2.15 2.17
0.87 0.58 0.53 0.70 0.81 0.42 0.59 1.04 1.80 1.49 1.10 1.10 1.26 1.05 1.42 1.58 1.41 1.67 1.60 1.70 2.02 1.90 1.60 1.60 1.61 1.42 1.49 1.59 1.58 1.68 1.95 2.08
1.33 1.03 0.82 0.81 0.44 0.52 0.58 0.84 1.19 2.42 2.37 2.50 2.20 2.39 2.83 2.21 2.35 2.73 2.17 1.93 1.67 1.32 1.18 1.12 1.19 1.31 1.46 1.47 1.46 1.52 1.41 1.41
1.01 0.90 0.92 1.03 0.61 0.72 0.88 1.48 1.72 1.66 2.06 2.50 2.40 2.71 2.55 2.50 2.11 1.79 1.51 1.44 1.44 1.41 1.16 1.07 1.06 1.19 1.31 1.64 1.52 1.34 1.44 1.70
0.62 0.67 0.73 1.09 1.17 0.97 1.06 1.37 1.57 1.37 1.51 1.43 2.05 2.03 1.42 1.41 1.82 1.43 1.32 1.23 1.45 1.78 1.89 1.94 1.72 1.39 1.40 1.36 1.31 1.33 1.23 1.56
0.43 0.41 0.44 0.67 0.88 0.92 0.97 0.91 0.99 1.11 1.28 1.10 0.81 0.87 0.81 0.68 0.68 0.76 0.73 0.61 0.77 1.33 1.40 1.56 1.43 1.17 1.16 0.84 0.64 1.01 1.13 1.05
0.60 0.50 0.40 0.39 0.41 0.50 0.57 0.57 0.61 0.61 0.64 0.68 0.73 0.61 0.67 0.68 0.52 0.53 0.37 0.32 0.41 0.61 0.73 0.86 1.01 0.80 0.87 0.52 0.45 0.55 0.62 0.56
0.76 0.81 0.73 0.73 0.63 0.60 0.58 0.60 0.55 0.56 0.57 0.54 0.48 0.59 0.62 0.69 0.67 0.66 0.72 0.75 0.68 0.59 0.60 0.63 0.82 0.97 1.09 0.95 0.79 0.59 0.63 0.73
0.91 0.92 0.89 0.89 0.76 0.70 0.80 0.83 0.80 0.68 0.64 0.61 0.54 0.52 0.64 0.79 0.76 0.78 0.97 0.96 0.82 0.73 0.70 0.62 0.48 0.53 0.69 0.71 0.92 0.95 1.07 0.99